When you browse on this site, cookies collect data to enhance your experience and personalize the content and advertising you see.
Visit our Privacy Policy to learn more. By continuing to use the site, you agree to this use of cookies and data.
  • In Czech Republic
  • List of Countries
  • For 7 days
  • Water Temperature
  • Weather Map
  • Weather Widgets
  • user-avatar
    Login

    Hourly Weather Tyne Valley

    Today, 17 January, Friday

    Time Temperature Precipitation Wind Pressure Humidity
    00:00 -12°C° 0.2 mm 10 mps 753 mmHg 92%
    01:00 -12°C° 0.2 mm 10 mps 753 mmHg 91%
    02:00 -12°C° 0 mm 11 mps 753 mmHg 93%
    03:00 -13°C° 0.3 mm 11 mps 754 mmHg 91%
    04:00 -13°C° 0.3 mm 12 mps 754 mmHg 88%
    05:00 -15°C° 0.3 mm 13 mps 755 mmHg 86%
    06:00 -16°C° 0.1 mm 13 mps 756 mmHg 86%
    07:00 -18°C° 0.1 mm 14 mps 757 mmHg 85%
    08:00 -17°C° 0 mm 13 mps 758 mmHg 89%
    09:00 -19°C° 0.1 mm 13 mps 758 mmHg 88%
    10:00 -20°C° 0.1 mm 14 mps 759 mmHg 86%
    11:00 -20°C° 0.1 mm 14 mps 760 mmHg 85%
    12:00 -22°C° 0.1 mm 14 mps 760 mmHg 85%
    13:00 -21°C° 0.1 mm 13 mps 761 mmHg 84%
    14:00 -23°C° 0.1 mm 13 mps 761 mmHg 84%
    15:00 -22°C° 0.1 mm 12 mps 762 mmHg 83%
    16:00 -22°C° 0.1 mm 11 mps 762 mmHg 82%
    17:00 -22°C° 0.1 mm 10 mps 763 mmHg 82%
    18:00 -23°C° 0 mm 10 mps 763 mmHg 81%
    19:00 -23°C° 0 mm 11 mps 764 mmHg 81%
    20:00 -23°C° 0 mm 11 mps 764 mmHg 80%
    21:00 -23°C° 0 mm 10 mps 764 mmHg 80%
    22:00 -24°C° 0 mm 10 mps 765 mmHg 81%
    23:00 -24°C° 0 mm 9 mps 765 mmHg 81%

    Tomorrow, 18 January, Saturday

    Time Temperature Precipitation Wind Pressure Humidity
    00:00 -25°C° 0 mm 9 mps 765 mmHg 82%
    01:00 -25°C° 0 mm 9 mps 765 mmHg 83%
    02:00 -24°C° 0 mm 8 mps 765 mmHg 83%
    03:00 -26°C° 0 mm 8 mps 766 mmHg 83%
    04:00 -26°C° 0 mm 8 mps 766 mmHg 83%
    05:00 -26°C° 0 mm 7 mps 766 mmHg 83%
    06:00 -27°C° 0 mm 8 mps 766 mmHg 83%
    07:00 -27°C° 0 mm 8 mps 766 mmHg 84%
    08:00 -27°C° 0 mm 8 mps 766 mmHg 85%
    09:00 -26°C° 0 mm 7 mps 766 mmHg 85%
    10:00 -25°C° 0 mm 7 mps 766 mmHg 86%
    11:00 -24°C° 0 mm 7 mps 766 mmHg 87%
    12:00 -23°C° 0 mm 6 mps 766 mmHg 86%
    13:00 -22°C° 0 mm 6 mps 766 mmHg 86%
    14:00 -20°C° 0 mm 5 mps 766 mmHg 86%
    15:00 -20°C° 0 mm 4 mps 765 mmHg 87%
    16:00 -20°C° 0 mm 4 mps 765 mmHg 88%
    17:00 -19°C° 0 mm 3 mps 765 mmHg 89%
    18:00 -19°C° 0 mm 3 mps 765 mmHg 90%
    19:00 -19°C° 0 mm 3 mps 765 mmHg 90%
    20:00 -18°C° 0 mm 2 mps 765 mmHg 91%
    21:00 -18°C° 0 mm 2 mps 765 mmHg 91%
    22:00 -18°C° 0 mm 2 mps 764 mmHg 91%
    23:00 -18°C° 0 mm 2 mps 764 mmHg 92%

    Day after tomorrow, 19 January, Sunday

    Time Temperature Precipitation Wind Pressure Humidity
    00:00 -17°C° 0 mm 2 mps 763 mmHg 91%
    01:00 -17°C° 0 mm 2 mps 763 mmHg 91%
    02:00 -16°C° 0 mm 2 mps 763 mmHg 91%
    03:00 -17°C° 0.1 mm 3 mps 762 mmHg 91%
    04:00 -16°C° 0.1 mm 3 mps 761 mmHg 92%
    05:00 -17°C° 0.1 mm 4 mps 760 mmHg 93%
    06:00 -17°C° 0.2 mm 5 mps 759 mmHg 93%
    07:00 -15°C° 0.2 mm 5 mps 759 mmHg 93%
    08:00 -16°C° 0.2 mm 6 mps 758 mmHg 93%
    09:00 -15°C° 0.2 mm 7 mps 757 mmHg 93%
    10:00 -15°C° 0.2 mm 8 mps 755 mmHg 93%
    11:00 -13°C° 0.2 mm 8 mps 754 mmHg 93%
    12:00 -12°C° 1.1 mm 9 mps 752 mmHg 94%
    13:00 -12°C° 1.1 mm 10 mps 751 mmHg 94%
    14:00 -11°C° 1.1 mm 11 mps 749 mmHg 94%
    15:00 -9°C° 1.7 mm 11 mps 748 mmHg 94%
    16:00 -9°C° 1.7 mm 11 mps 747 mmHg 94%
    17:00 -9°C° 1.7 mm 11 mps 746 mmHg 94%
    18:00 -9°C° 1.2 mm 11 mps 745 mmHg 94%
    19:00 -8°C° 1.2 mm 11 mps 745 mmHg 94%
    20:00 -8°C° 1.2 mm 11 mps 744 mmHg 94%
    21:00 -8°C° 0.4 mm 11 mps 745 mmHg 94%
    22:00 -8°C° 0.4 mm 11 mps 745 mmHg 94%
    23:00 -8°C° 0.4 mm 10 mps 745 mmHg 94%

    20 January, Monday

    Time Temperature Precipitation Wind Pressure Humidity
    00:00 -9°C° 0.3 mm 10 mps 746 mmHg 93%
    01:00 -9°C° 0.3 mm 10 mps 747 mmHg 93%
    02:00 -9°C° 0.3 mm 10 mps 748 mmHg 93%
    03:00 -10°C° 0.2 mm 10 mps 748 mmHg 93%
    04:00 -10°C° 0.2 mm 9 mps 749 mmHg 92%
    05:00 -10°C° 0.2 mm 9 mps 749 mmHg 92%
    06:00 -11°C° 0.1 mm 8 mps 750 mmHg 91%
    07:00 -11°C° 0.1 mm 8 mps 751 mmHg 90%
    08:00 -12°C° 0.1 mm 7 mps 752 mmHg 89%
    09:00 -12°C° 0 mm 7 mps 752 mmHg 88%
    10:00 -11°C° 0 mm 7 mps 753 mmHg 87%
    11:00 -10°C° 0 mm 6 mps 753 mmHg 86%
    12:00 -10°C° 0 mm 6 mps 753 mmHg 86%
    13:00 -11°C° 0 mm 6 mps 753 mmHg 86%
    14:00 -11°C° 0 mm 5 mps 753 mmHg 87%
    15:00 -11°C° 0 mm 4 mps 754 mmHg 87%
    16:00 -12°C° 0 mm 3 mps 754 mmHg 87%
    17:00 -13°C° 0 mm 2 mps 754 mmHg 87%
    18:00 -14°C° 0 mm 3 mps 754 mmHg 88%
    19:00 -14°C° 0 mm 3 mps 755 mmHg 89%
    20:00 -14°C° 0 mm 3 mps 755 mmHg 90%
    21:00 -15°C° 0 mm 3 mps 755 mmHg 91%
    22:00 -15°C° 0 mm 3 mps 755 mmHg 92%
    23:00 -16°C° 0 mm 4 mps 755 mmHg 94%

    21 January, Tuesday

    Time Temperature Precipitation Wind Pressure Humidity
    00:00 -17°C° 0 mm 4 mps 755 mmHg 91%
    01:00 -17°C° 0 mm 4 mps 755 mmHg 89%
    02:00 -17°C° 0 mm 4 mps 755 mmHg 86%
    03:00 -18°C° 0 mm 4 mps 755 mmHg 87%
    04:00 -18°C° 0 mm 4 mps 755 mmHg 88%
    05:00 -18°C° 0 mm 4 mps 755 mmHg 88%
    06:00 -18°C° 0 mm 4 mps 755 mmHg 89%
    07:00 -19°C° 0 mm 5 mps 756 mmHg 90%
    08:00 -19°C° 0 mm 5 mps 756 mmHg 92%
    09:00 -21°C° 0 mm 6 mps 757 mmHg 87%
    10:00 -21°C° 0 mm 6 mps 757 mmHg 82%
    11:00 -23°C° 0 mm 7 mps 758 mmHg 78%
    12:00 -23°C° 0 mm 7 mps 758 mmHg 78%
    13:00 -23°C° 0 mm 7 mps 758 mmHg 79%
    14:00 -23°C° 0 mm 7 mps 758 mmHg 80%
    15:00 -22°C° 0 mm 6 mps 759 mmHg 82%
    16:00 -22°C° 0 mm 5 mps 760 mmHg 84%
    17:00 -24°C° 0 mm 5 mps 760 mmHg 86%
    18:00 -24°C° 0 mm 6 mps 761 mmHg 85%
    19:00 -24°C° 0 mm 6 mps 762 mmHg 84%
    20:00 -25°C° 0 mm 7 mps 763 mmHg 84%
    21:00 -26°C° 0 mm 7 mps 763 mmHg 84%
    22:00 -27°C° 0 mm 7 mps 764 mmHg 85%
    23:00 -29°C° 0 mm 7 mps 764 mmHg 85%

    22 January, Wednesday

    Time Temperature Precipitation Wind Pressure Humidity
    00:00 -29°C° 0 mm 7 mps 765 mmHg 86%
    01:00 -29°C° 0 mm 6 mps 765 mmHg 87%
    02:00 -29°C° 0 mm 6 mps 766 mmHg 88%
    03:00 -30°C° 0 mm 6 mps 766 mmHg 88%
    04:00 -30°C° 0 mm 6 mps 767 mmHg 88%
    05:00 -30°C° 0 mm 6 mps 768 mmHg 88%
    06:00 -31°C° 0 mm 6 mps 768 mmHg 88%
    07:00 -31°C° 0 mm 6 mps 769 mmHg 88%
    08:00 -31°C° 0 mm 5 mps 769 mmHg 88%
    09:00 -29°C° 0 mm 5 mps 770 mmHg 88%
    10:00 -28°C° 0 mm 5 mps 770 mmHg 88%
    11:00 -27°C° 0 mm 5 mps 771 mmHg 88%
    12:00 -25°C° 0 mm 4 mps 771 mmHg 87%
    13:00 -25°C° 0 mm 4 mps 771 mmHg 86%
    14:00 -23°C° 0 mm 3 mps 771 mmHg 85%
    15:00 -24°C° 0 mm 3 mps 771 mmHg 87%
    16:00 -23°C° 0 mm 2 mps 771 mmHg 88%
    17:00 -24°C° 0 mm 2 mps 771 mmHg 90%
    18:00 -24°C° 0 mm 2 mps 771 mmHg 90%
    19:00 -24°C° 0 mm 3 mps 772 mmHg 91%
    20:00 -24°C° 0 mm 3 mps 772 mmHg 91%
    21:00 -24°C° 0 mm 3 mps 772 mmHg 90%
    22:00 -24°C° 0 mm 4 mps 772 mmHg 90%
    23:00 -24°C° 0 mm 4 mps 772 mmHg 89%
    Show more